Welcome to our new website - Welkom op onze vernieuwde website - Bienvenue sur notre nouveau site web - Willkommen auf unserer neuen Website
Check our progress frequently. Prüfen Sie unsere Fortschritte regelmäßig. Consultez notre progression fréquemment. Komt u straks nog eens terug


Hej. Vi har købt ny vejrstation, og er ved at bygge en helt ny vejrside.
Kom snart tilbage og følg udviklingen.
Du kan også komme med kommentarer eller evt. ønsker via "Kontakt" i bunden.



Webcam more information Webcam


Rain radar more information rain snow radar


Visit our other weather sites:

Template documentation
and downloads

And another site



Select another period ( hide this area )

Units Period Custom range Directly to
Metric English Both
Daily Weekly Monthly Yearly
use both date-selectors for a custom range
previous Day
With this date

WeatherUnderground graphs for this period ( click here )


Daily Summary for Monday 09 December 2019
Time Temp. ( °C ) Dew pt. ( °C ) Wind ( km/h ) from Gust ( km/h ) Pressure ( hPa ) Humid.( % ) Rainrate ( cm ) Solar ( W/m2 )
High6,7 4,8 33,8 SW ( 1677/3474 ) 43,4 992,4 90 1,50 84
Average5,9 3,8 18,2 SW #93/191 30,3 989,4 86 1,70 28 #91/191
Low5,3 3,0 7,9   19,3 987,7 83 -  
Daily Tabular details for Monday 09 December 2019
Time Temp. ( °C ) Dew pt. ( °C ) Wind ( km/h ) from Gust ( km/h ) Pressure ( hPa ) Humid.( % ) Rainrate ( cm ) Solar ( W/m2 )
00:00 5,9 3,4 9,7 SW 35,4 988,0 84 - -
00:05 5,8 3,3 24,1 WSW 33,8 988,0 84 - -
00:10 5,8 3,5 22,7 WSW 37,0 988,0 85 - -
00:15 5,9 3,6 16,3 West 30,6 988,0 85 - -
00:20 5,9 3,6 19,5 SW 33,8 987,7 85 - -
00:25 5,9 3,6 19,5 SW 22,5 987,7 85 - -
00:30 5,9 3,6 17,7 SW 35,4 987,7 85 - -
00:35 5,9 3,6 20,9 WSW 24,1 988,0 85 - -
00:40 5,9 3,6 13,0 SW 29,0 988,0 85 - -
00:45 5,8 3,5 20,9 SW 25,7 988,0 85 - -
00:50 5,8 3,6 11,1 SW 27,4 988,0 86 - -
00:55 5,8 3,6 20,9 SW 30,6 987,7 86 - -
01:00 5,8 3,6 28,8 WSW 35,4 987,7 86 - -
01:05 5,8 3,6 20,9 SW 37,0 987,7 86 - -
01:10 5,8 3,6 16,3 WSW 32,2 987,7 86 - -
01:15 5,8 3,6 17,7 WSW 37,0 987,7 86 - -
01:20 5,8 3,6 32,0 SW 32,2 987,7 86 - -
01:25 5,8 3,6 19,5 WSW 25,7 987,7 86 - -
01:30 5,8 3,6 17,7 WSW 24,1 987,7 86 - -
01:35 5,8 3,6 14,3 SSW 29,0 987,7 86 - -
01:40 5,7 3,5 14,3 SW 30,6 987,7 86 - -
01:45 5,8 3,5 24,1 SW 37,0 987,7 85 - -
01:50 5,8 3,5 30,6 SW 30,6 987,7 85 - -
01:55 5,8 3,5 14,3 SW 40,2 987,7 85 - -
02:00 5,8 3,5 17,7 WSW 32,2 988,0 85 - -
02:05 5,8 3,3 22,7 WSW 27,4 988,0 84 - -
02:10 5,8 3,5 24,1 SW 33,8 988,0 85 - -
02:15 5,8 3,3 14,3 WSW 33,8 988,0 84 - -
02:20 5,8 3,3 20,9 SSW 24,1 988,0 84 - -
02:25 5,8 3,3 17,7 SSW 30,6 988,0 84 - -
02:30 5,8 3,1 11,1 SW 27,4 988,0 83 - -
02:35 5,8 3,1 22,7 SW 27,4 988,0 83 - -
02:40 5,8 3,1 27,4 WSW 29,0 988,0 83 - -
02:45 5,8 3,1 16,3 SW 20,9 988,4 83 - -
02:50 5,8 3,1 9,7 SW 22,5 988,0 83 - -
02:55 5,7 3,2 7,9 SW 29,0 988,0 84 - -
03:00 5,7 3,2 13,0 SW 20,9 988,0 84 - -
03:05 5,7 3,2 11,1 SW 25,7 988,0 84 - -
03:10 5,6 3,1 13,0 SW 32,2 988,4 84 - -
03:15 5,6 3,3 24,1 SW 27,4 988,4 85 - -
03:20 5,7 3,4 9,7 SW 32,2 988,0 85 - -
03:25 5,7 3,4 19,5 SW 27,4 988,0 85 - -
03:30 5,7 3,4 16,3 SW 40,2 988,0 85 - -
03:35 5,7 3,4 14,3 SSW 32,2 988,0 85 - -
03:40 5,7 3,4 24,1 SW 30,6 988,0 85 - -
03:45 5,7 3,4 13,0 SW 29,0 988,0 85 - -
03:50 5,7 3,4 27,4 SSW 33,8 988,0 85 - -
03:55 5,7 3,5 16,3 SSW 33,8 988,0 86 - -
04:00 5,7 3,5 11,1 SSW 35,4 988,0 86 - -
04:05 5,7 3,5 20,9 SW 32,2 988,0 86 - -
04:10 5,7 3,5 14,3 SW 32,2 988,0 86 - -
04:15 5,7 3,5 17,7 SW 25,7 988,0 86 - -
04:20 5,7 3,5 25,9 SSW 32,2 988,0 86 - -
04:25 5,7 3,5 16,3 WSW 35,4 988,0 86 - -
04:30 5,7 3,5 19,5 SW 38,6 988,0 86 - -
04:35 5,7 3,5 11,1 SW 33,8 988,0 86 - -
04:40 5,7 3,5 19,5 WSW 32,2 988,0 86 - -
04:45 5,6 3,4 27,4 SW 30,6 988,4 86 - -
04:50 5,6 3,4 27,4 WSW 30,6 988,4 86 - -
04:55 5,6 3,4 11,1 SW 25,7 988,4 86 - -
05:00 5,6 3,4 13,0 WSW 20,9 988,4 86 - -
05:05 5,6 3,4 25,9 WSW 33,8 988,4 86 - -
05:10 5,6 3,4 33,8 SW 33,8 988,4 86 - -
05:15 5,7 3,5 17,7 SSW 30,6 988,4 86 - -
05:20 5,7 3,5 16,3 SSW 33,8 988,4 86 - -
05:25 5,6 3,4 16,3 SW 35,4 988,4 86 - -
05:30 5,6 3,4 14,3 WSW 20,9 988,4 86 - -
05:35 5,6 3,4 14,3 SW 30,6 988,4 86 - -
05:40 5,6 3,4 16,3 SW 24,1 988,7 86 - -
05:45 5,5 3,3 16,3 WSW 25,7 988,7 86 - -
05:50 5,5 3,3 9,7 SW 30,6 988,4 86 - -
05:55 5,4 3,2 11,1 SW 25,7 988,4 86 - -
06:00 5,5 3,3 14,3 SSW 32,2 988,7 86 - -
06:05 5,4 3,2 13,0 SSW 29,0 988,7 86 - -
06:10 5,4 3,2 19,5 SSW 27,4 988,7 86 - -
06:15 5,4 3,2 24,1 SW 27,4 988,7 86 - -
06:20 5,4 3,2 25,9 WSW 27,4 988,7 86 - -
06:25 5,4 3,2 9,7 SW 29,0 988,7 86 - -
06:30 5,4 3,2 16,3 WSW 32,2 988,7 86 - -
06:35 5,5 3,3 13,0 WSW 33,8 988,7 86 - -
06:40 5,4 3,2 14,3 SSW 25,7 989,1 86 - -
06:45 5,4 3,2 24,1 SSW 29,0 989,1 86 - -
06:50 5,4 3,2 11,1 SSW 30,6 989,1 86 - -
06:55 5,4 3,2 7,9 SSW 19,3 989,1 86 - -
07:00 5,4 3,2 19,5 WSW 30,6 989,1 86 - -
07:05 5,4 3,2 7,9 SW 22,5 989,1 86 - -
07:10 5,4 3,2 28,8 SW 33,8 989,1 86 - -
07:15 5,4 3,2 7,9 SW 32,2 989,1 86 - -
07:20 5,4 3,2 9,7 WSW 27,4 989,1 86 - -
07:25 5,4 3,2 14,3 SW 25,7 989,1 86 - -
07:30 5,4 3,2 9,7 SW 24,1 989,1 86 - -
07:35 5,4 3,2 7,9 SW 19,3 989,4 86 - -
07:40 5,3 3,1 13,0 SW 22,5 989,1 86 - -
07:45 5,3 3,1 17,7 SW 24,1 989,4 86 - -
07:50 5,3 3,0 14,3 SW 22,5 989,4 85 - -
07:55 5,3 3,0 22,7 SW 22,5 989,4 85 - -
08:00 5,3 3,1 20,9 WSW 22,5 989,4 86 - -
08:05 5,3 3,1 14,3 SW 22,5 989,4 86 - -
08:10 5,3 3,1 9,7 SSW 29,0 989,4 86 - -
08:15 5,3 3,1 17,7 SW 29,0 989,7 86 - -
08:20 5,4 3,2 14,3 SW 20,9 989,7 86 - 5
08:25 5,4 3,2 17,7 SSW 25,7 989,7 86 - 5
08:30 5,5 3,3 11,1 WSW 24,1 989,7 86 - 7
08:35 5,5 3,3 11,1 South 19,3 989,7 86 - 9
08:40 5,6 3,4 19,5 South 24,1 989,7 86 - 9
08:45 5,7 3,5 9,7 SSW 29,0 989,7 86 - 9
08:50 5,7 3,5 25,9 SW 29,0 989,7 86 - 14
08:55 5,8 3,5 16,3 SW 20,9 989,7 85 - 14
09:00 5,9 3,6 16,3 SW 24,1 989,7 85 - 12
09:05 6,0 3,7 14,3 SSW 30,6 989,7 85 - 16
09:10 6,1 3,8 7,9 SSW 29,0 990,1 85 - 12
09:15 6,1 3,6 14,3 SW 32,2 989,7 84 - 14
09:20 6,2 3,7 13,0 SSW 29,0 990,1 84 - 16
09:25 6,2 3,7 24,1 SW 29,0 989,7 84 - 25
09:30 6,3 3,8 14,3 SSW 40,2 990,1 84 - 16
09:35 6,3 3,8 19,5 SSW 40,2 990,1 84 - 9
09:40 6,3 3,8 13,0 WSW 29,0 990,1 84 - 19
09:45 6,3 4,0 20,9 SW 20,9 990,1 85 - 16
09:50 6,2 3,9 19,5 WSW 25,7 990,1 85 - 46
09:55 6,2 4,0 19,5 WSW 30,6 990,4 86 - 58
10:00 6,2 4,0 16,3 SSW 35,4 990,1 86 - 84
10:05 6,3 4,0 20,9 SSW 29,0 990,1 85 - 49
10:10 6,3 4,0 24,1 SW 40,2 990,1 85 - 21
10:15 6,3 4,0 24,1 WSW 29,0 990,4 85 - 11
10:20 6,2 4,0 17,7 SW 30,6 990,4 86 0,30 14
10:25 6,1 3,9 33,8 SW 33,8 990,4 86 0,30 21
10:30 6,0 4,0 14,3 SW 33,8 990,4 87 0,30 21
10:35 5,9 3,9 28,8 SSW 35,4 990,4 87 0,50 18
10:40 5,9 3,9 19,5 WSW 43,4 990,4 87 0,50 23
10:45 5,9 4,1 16,3 SSW 37,0 990,4 88 0,50 21
10:50 5,8 4,0 32,0 SW 32,2 990,4 88 0,50 19
10:55 5,8 4,0 16,3 SW 30,6 990,4 88 0,50 28
11:00 5,8 4,0 27,4 SSW 35,4 990,1 88 0,50 26
11:05 5,8 4,1 24,1 WSW 33,8 990,1 89 0,80 40
11:10 5,8 4,1 14,3 WSW 29,0 990,1 89 0,80 44
11:15 5,9 4,2 19,5 SW 32,2 990,1 89 0,80 28
11:20 5,8 4,1 19,5 SW 40,2 990,1 89 0,80 14
11:25 5,9 4,2 14,3 WSW 20,9 990,1 89 1,00 11
11:30 5,9 4,2 27,4 SW 33,8 990,1 89 1,30 14
11:35 5,9 4,2 27,4 SW 43,4 990,1 89 1,00 14
11:40 5,9 4,2 27,4 SSW 33,8 990,1 89 1,30 12
11:45 5,9 4,2 11,1 WSW 27,4 990,4 89 1,50 18
11:50 5,9 4,4 22,7 West 37,0 990,4 90 1,50 19
11:55 5,9 4,2 22,7 SW 27,4 990,4 89 1,50 23
12:00 5,9 4,4 14,3 WSW 35,4 990,4 90 1,50 39
12:05 5,9 4,4 24,1 SW 40,2 990,4 90 1,50 65
12:10 5,9 4,4 14,3 SW 30,6 990,4 90 1,50 54
12:15 6,1 4,6 22,7 WSW 37,0 990,4 90 1,50 28
12:20 6,0 4,5 25,9 SW 43,4 990,4 90 1,30 18
12:25 6,0 4,5 19,5 SSW 33,8 990,4 90 1,30 37
12:30 6,1 4,6 25,9 SW 30,6 990,4 90 1,00 47
12:35 6,1 4,6 14,3 SSW 33,8 990,4 90 1,00 62
12:40 6,1 4,6 13,0 SW 29,0 990,4 90 0,80 74
12:45 6,1 4,6 25,9 SW 38,6 990,4 90 0,50 53
12:50 6,1 4,6 7,9 WSW 24,1 990,4 90 0,50 44
12:55 6,2 4,7 27,4 SSW 37,0 990,4 90 0,50 40
13:00 6,2 4,5 17,7 WSW 30,6 990,7 89 0,50 56
13:05 6,3 4,8 28,8 SW 30,6 990,7 90 0,30 51
13:10 6,3 4,6 25,9 WSW 35,4 990,7 89 0,30 58
13:15 6,3 4,6 13,0 SW 38,6 990,7 89 0,30 40
13:20 6,4 4,7 17,7 West 33,8 990,7 89 0,30 46
13:25 6,4 4,7 20,9 SW 27,4 990,7 89 - 60
13:30 6,4 4,7 22,7 SW 37,0 990,7 89 - 44
13:35 6,4 4,6 16,3 WSW 27,4 990,7 88 - 40
13:40 6,4 4,6 17,7 SW 35,4 990,7 88 - 53
13:45 6,5 4,7 22,7 West 33,8 990,7 88 - 51
13:50 6,6 4,6 25,9 WSW 33,8 990,7 87 - 51
13:55 6,6 4,6 22,7 WSW 35,4 990,7 87 - 44
14:00 6,6 4,6 17,7 WSW 24,1 991,1 87 - 33
14:05 6,6 4,6 25,9 WSW 40,2 991,1 87 - 26
14:10 6,6 4,4 19,5 WSW 32,2 991,1 86 - 16
14:15 6,6 4,4 22,7 WSW 38,6 991,1 86 - 23
14:20 6,6 4,4 13,0 SW 25,7 991,1 86 - 30
14:25 6,6 4,4 20,9 WSW 37,0 991,1 86 - 21
14:30 6,6 4,4 17,7 SW 35,4 991,1 86 - 16
14:35 6,7 4,5 17,7 WSW 37,0 991,4 86 - 14
14:40 6,6 4,4 20,9 WSW 37,0 991,4 86 - 19
14:45 6,6 4,4 19,5 SSW 29,0 991,4 86 - 33
14:50 6,5 4,5 14,3 SW 20,9 991,4 87 - 21
14:55 6,4 4,4 20,9 WSW 27,4 991,8 87 - 19
15:00 6,4 4,4 17,7 WSW 25,7 991,8 87 - 23
15:05 6,3 4,3 9,7 WSW 29,0 992,1 87 - 21
15:10 6,3 4,5 19,5 SW 33,8 992,1 88 - 23
15:15 6,3 4,5 17,7 SW 25,7 992,1 88 - 19
15:20 6,3 4,5 11,1 SW 30,6 992,1 88 - 16
15:25 6,2 4,4 27,4 WSW 27,4 992,1 88 - 14
15:30 6,2 4,4 16,3 West 20,9 992,1 88 - 11
15:35 6,1 4,3 14,3 WSW 24,1 992,4 88 - 9
15:40 6,1 4,3 13,0 WSW 22,5 992,4 88 - 7
15:45 6,0 4,2 17,7 SW 24,1 992,4 88 - 7
15:50 5,9 4,1 9,7 SW 32,2 992,4 88 - 5
Daily Summary for Monday 09 December 2019
Time Temp. ( °C ) Dew pt. ( °C ) Wind ( km/h ) from Gust ( km/h ) Pressure ( hPa ) Humid.( % ) Rainrate ( cm ) Solar ( W/m2 )
High6,7 4,8 33,8 SW ( 1677/3474 ) 43,4 992,4 90 1,50 84
Average5,9 3,8 18,2 SW #93/191 30,3 989,4 86 1,70 28 #91/191
Low5,3 3,0 7,9   19,3 987,7 83 -  
Daily Tabular details for Monday 09 December 2019
Time Temp. ( °C ) Dew pt. ( °C ) Wind ( km/h ) from Gust ( km/h ) Pressure ( hPa ) Humid.( % ) Rainrate ( cm ) Solar ( W/m2 )
00:00 5,9 3,4 9,7 SW 35,4 988,0 84 - -
00:05 5,8 3,3 24,1 WSW 33,8 988,0 84 - -
00:10 5,8 3,5 22,7 WSW 37,0 988,0 85 - -
00:15 5,9 3,6 16,3 West 30,6 988,0 85 - -
00:20 5,9 3,6 19,5 SW 33,8 987,7 85 - -
00:25 5,9 3,6 19,5 SW 22,5 987,7 85 - -
00:30 5,9 3,6 17,7 SW 35,4 987,7 85 - -
00:35 5,9 3,6 20,9 WSW 24,1 988,0 85 - -
00:40 5,9 3,6 13,0 SW 29,0 988,0 85 - -
00:45 5,8 3,5 20,9 SW 25,7 988,0 85 - -
00:50 5,8 3,6 11,1 SW 27,4 988,0 86 - -
00:55 5,8 3,6 20,9 SW 30,6 987,7 86 - -
01:00 5,8 3,6 28,8 WSW 35,4 987,7 86 - -
01:05 5,8 3,6 20,9 SW 37,0 987,7 86 - -
01:10 5,8 3,6 16,3 WSW 32,2 987,7 86 - -
01:15 5,8 3,6 17,7 WSW 37,0 987,7 86 - -
01:20 5,8 3,6 32,0 SW 32,2 987,7 86 - -
01:25 5,8 3,6 19,5 WSW 25,7 987,7 86 - -
01:30 5,8 3,6 17,7 WSW 24,1 987,7 86 - -
01:35 5,8 3,6 14,3 SSW 29,0 987,7 86 - -
01:40 5,7 3,5 14,3 SW 30,6 987,7 86 - -
01:45 5,8 3,5 24,1 SW 37,0 987,7 85 - -
01:50 5,8 3,5 30,6 SW 30,6 987,7 85 - -
01:55 5,8 3,5 14,3 SW 40,2 987,7 85 - -
02:00 5,8 3,5 17,7 WSW 32,2 988,0 85 - -
02:05 5,8 3,3 22,7 WSW 27,4 988,0 84 - -
02:10 5,8 3,5 24,1 SW 33,8 988,0 85 - -
02:15 5,8 3,3 14,3 WSW 33,8 988,0 84 - -
02:20 5,8 3,3 20,9 SSW 24,1 988,0 84 - -
02:25 5,8 3,3 17,7 SSW 30,6 988,0 84 - -
02:30 5,8 3,1 11,1 SW 27,4 988,0 83 - -
02:35 5,8 3,1 22,7 SW 27,4 988,0 83 - -
02:40 5,8 3,1 27,4 WSW 29,0 988,0 83 - -
02:45 5,8 3,1 16,3 SW 20,9 988,4 83 - -
02:50 5,8 3,1 9,7 SW 22,5 988,0 83 - -
02:55 5,7 3,2 7,9 SW 29,0 988,0 84 - -
03:00 5,7 3,2 13,0 SW 20,9 988,0 84 - -
03:05 5,7 3,2 11,1 SW 25,7 988,0 84 - -
03:10 5,6 3,1 13,0 SW 32,2 988,4 84 - -
03:15 5,6 3,3 24,1 SW 27,4 988,4 85 - -
03:20 5,7 3,4 9,7 SW 32,2 988,0 85 - -
03:25 5,7 3,4 19,5 SW 27,4 988,0 85 - -
03:30 5,7 3,4 16,3 SW 40,2 988,0 85 - -
03:35 5,7 3,4 14,3 SSW 32,2 988,0 85 - -
03:40 5,7 3,4 24,1 SW 30,6 988,0 85 - -
03:45 5,7 3,4 13,0 SW 29,0 988,0 85 - -
03:50 5,7 3,4 27,4 SSW 33,8 988,0 85 - -
03:55 5,7 3,5 16,3 SSW 33,8 988,0 86 - -
04:00 5,7 3,5 11,1 SSW 35,4 988,0 86 - -
04:05 5,7 3,5 20,9 SW 32,2 988,0 86 - -
04:10 5,7 3,5 14,3 SW 32,2 988,0 86 - -
04:15 5,7 3,5 17,7 SW 25,7 988,0 86 - -
04:20 5,7 3,5 25,9 SSW 32,2 988,0 86 - -
04:25 5,7 3,5 16,3 WSW 35,4 988,0 86 - -
04:30 5,7 3,5 19,5 SW 38,6 988,0 86 - -
04:35 5,7 3,5 11,1 SW 33,8 988,0 86 - -
04:40 5,7 3,5 19,5 WSW 32,2 988,0 86 - -
04:45 5,6 3,4 27,4 SW 30,6 988,4 86 - -
04:50 5,6 3,4 27,4 WSW 30,6 988,4 86 - -
04:55 5,6 3,4 11,1 SW 25,7 988,4 86 - -
05:00 5,6 3,4 13,0 WSW 20,9 988,4 86 - -
05:05 5,6 3,4 25,9 WSW 33,8 988,4 86 - -
05:10 5,6 3,4 33,8 SW 33,8 988,4 86 - -
05:15 5,7 3,5 17,7 SSW 30,6 988,4 86 - -
05:20 5,7 3,5 16,3 SSW 33,8 988,4 86 - -
05:25 5,6 3,4 16,3 SW 35,4 988,4 86 - -
05:30 5,6 3,4 14,3 WSW 20,9 988,4 86 - -
05:35 5,6 3,4 14,3 SW 30,6 988,4 86 - -
05:40 5,6 3,4 16,3 SW 24,1 988,7 86 - -
05:45 5,5 3,3 16,3 WSW 25,7 988,7 86 - -
05:50 5,5 3,3 9,7 SW 30,6 988,4 86 - -
05:55 5,4 3,2 11,1 SW 25,7 988,4 86 - -
06:00 5,5 3,3 14,3 SSW 32,2 988,7 86 - -
06:05 5,4 3,2 13,0 SSW 29,0 988,7 86 - -
06:10 5,4 3,2 19,5 SSW 27,4 988,7 86 - -
06:15 5,4 3,2 24,1 SW 27,4 988,7 86 - -
06:20 5,4 3,2 25,9 WSW 27,4 988,7 86 - -
06:25 5,4 3,2 9,7 SW 29,0 988,7 86 - -
06:30 5,4 3,2 16,3 WSW 32,2 988,7 86 - -
06:35 5,5 3,3 13,0 WSW 33,8 988,7 86 - -
06:40 5,4 3,2 14,3 SSW 25,7 989,1 86 - -
06:45 5,4 3,2 24,1 SSW 29,0 989,1 86 - -
06:50 5,4 3,2 11,1 SSW 30,6 989,1 86 - -
06:55 5,4 3,2 7,9 SSW 19,3 989,1 86 - -
07:00 5,4 3,2 19,5 WSW 30,6 989,1 86 - -
07:05 5,4 3,2 7,9 SW 22,5 989,1 86 - -
07:10 5,4 3,2 28,8 SW 33,8 989,1 86 - -
07:15 5,4 3,2 7,9 SW 32,2 989,1 86 - -
07:20 5,4 3,2 9,7 WSW 27,4 989,1 86 - -
07:25 5,4 3,2 14,3 SW 25,7 989,1 86 - -
07:30 5,4 3,2 9,7 SW 24,1 989,1 86 - -
07:35 5,4 3,2 7,9 SW 19,3 989,4 86 - -
07:40 5,3 3,1 13,0 SW 22,5 989,1 86 - -
07:45 5,3 3,1 17,7 SW 24,1 989,4 86 - -
07:50 5,3 3,0 14,3 SW 22,5 989,4 85 - -
07:55 5,3 3,0 22,7 SW 22,5 989,4 85 - -
08:00 5,3 3,1 20,9 WSW 22,5 989,4 86 - -
08:05 5,3 3,1 14,3 SW 22,5 989,4 86 - -
08:10 5,3 3,1 9,7 SSW 29,0 989,4 86 - -
08:15 5,3 3,1 17,7 SW 29,0 989,7 86 - -
08:20 5,4 3,2 14,3 SW 20,9 989,7 86 - 5
08:25 5,4 3,2 17,7 SSW 25,7 989,7 86 - 5
08:30 5,5 3,3 11,1 WSW 24,1 989,7 86 - 7
08:35 5,5 3,3 11,1 South 19,3 989,7 86 - 9
08:40 5,6 3,4 19,5 South 24,1 989,7 86 - 9
08:45 5,7 3,5 9,7 SSW 29,0 989,7 86 - 9
08:50 5,7 3,5 25,9 SW 29,0 989,7 86 - 14
08:55 5,8 3,5 16,3 SW 20,9 989,7 85 - 14
09:00 5,9 3,6 16,3 SW 24,1 989,7 85 - 12
09:05 6,0 3,7 14,3 SSW 30,6 989,7 85 - 16
09:10 6,1 3,8 7,9 SSW 29,0 990,1 85 - 12
09:15 6,1 3,6 14,3 SW 32,2 989,7 84 - 14
09:20 6,2 3,7 13,0 SSW 29,0 990,1 84 - 16
09:25 6,2 3,7 24,1 SW 29,0 989,7 84 - 25
09:30 6,3 3,8 14,3 SSW 40,2 990,1 84 - 16
09:35 6,3 3,8 19,5 SSW 40,2 990,1 84 - 9
09:40 6,3 3,8 13,0 WSW 29,0 990,1 84 - 19
09:45 6,3 4,0 20,9 SW 20,9 990,1 85 - 16
09:50 6,2 3,9 19,5 WSW 25,7 990,1 85 - 46
09:55 6,2 4,0 19,5 WSW 30,6 990,4 86 - 58
10:00 6,2 4,0 16,3 SSW 35,4 990,1 86 - 84
10:05 6,3 4,0 20,9 SSW 29,0 990,1 85 - 49
10:10 6,3 4,0 24,1 SW 40,2 990,1 85 - 21
10:15 6,3 4,0 24,1 WSW 29,0 990,4 85 - 11
10:20 6,2 4,0 17,7 SW 30,6 990,4 86 0,30 14
10:25 6,1 3,9 33,8 SW 33,8 990,4 86 0,30 21
10:30 6,0 4,0 14,3 SW 33,8 990,4 87 0,30 21
10:35 5,9 3,9 28,8 SSW 35,4 990,4 87 0,50 18
10:40 5,9 3,9 19,5 WSW 43,4 990,4 87 0,50 23
10:45 5,9 4,1 16,3 SSW 37,0 990,4 88 0,50 21
10:50 5,8 4,0 32,0 SW 32,2 990,4 88 0,50 19
10:55 5,8 4,0 16,3 SW 30,6 990,4 88 0,50 28
11:00 5,8 4,0 27,4 SSW 35,4 990,1 88 0,50 26
11:05 5,8 4,1 24,1 WSW 33,8 990,1 89 0,80 40
11:10 5,8 4,1 14,3 WSW 29,0 990,1 89 0,80 44
11:15 5,9 4,2 19,5 SW 32,2 990,1 89 0,80 28
11:20 5,8 4,1 19,5 SW 40,2 990,1 89 0,80 14
11:25 5,9 4,2 14,3 WSW 20,9 990,1 89 1,00 11
11:30 5,9 4,2 27,4 SW 33,8 990,1 89 1,30 14
11:35 5,9 4,2 27,4 SW 43,4 990,1 89 1,00 14
11:40 5,9 4,2 27,4 SSW 33,8 990,1 89 1,30 12
11:45 5,9 4,2 11,1 WSW 27,4 990,4 89 1,50 18
11:50 5,9 4,4 22,7 West 37,0 990,4 90 1,50 19
11:55 5,9 4,2 22,7 SW 27,4 990,4 89 1,50 23
12:00 5,9 4,4 14,3 WSW 35,4 990,4 90 1,50 39
12:05 5,9 4,4 24,1 SW 40,2 990,4 90 1,50 65
12:10 5,9 4,4 14,3 SW 30,6 990,4 90 1,50 54
12:15 6,1 4,6 22,7 WSW 37,0 990,4 90 1,50 28
12:20 6,0 4,5 25,9 SW 43,4 990,4 90 1,30 18
12:25 6,0 4,5 19,5 SSW 33,8 990,4 90 1,30 37
12:30 6,1 4,6 25,9 SW 30,6 990,4 90 1,00 47
12:35 6,1 4,6 14,3 SSW 33,8 990,4 90 1,00 62
12:40 6,1 4,6 13,0 SW 29,0 990,4 90 0,80 74
12:45 6,1 4,6 25,9 SW 38,6 990,4 90 0,50 53
12:50 6,1 4,6 7,9 WSW 24,1 990,4 90 0,50 44
12:55 6,2 4,7 27,4 SSW 37,0 990,4 90 0,50 40
13:00 6,2 4,5 17,7 WSW 30,6 990,7 89 0,50 56
13:05 6,3 4,8 28,8 SW 30,6 990,7 90 0,30 51
13:10 6,3 4,6 25,9 WSW 35,4 990,7 89 0,30 58
13:15 6,3 4,6 13,0 SW 38,6 990,7 89 0,30 40
13:20 6,4 4,7 17,7 West 33,8 990,7 89 0,30 46
13:25 6,4 4,7 20,9 SW 27,4 990,7 89 - 60
13:30 6,4 4,7 22,7 SW 37,0 990,7 89 - 44
13:35 6,4 4,6 16,3 WSW 27,4 990,7 88 - 40
13:40 6,4 4,6 17,7 SW 35,4 990,7 88 - 53
13:45 6,5 4,7 22,7 West 33,8 990,7 88 - 51
13:50 6,6 4,6 25,9 WSW 33,8 990,7 87 - 51
13:55 6,6 4,6 22,7 WSW 35,4 990,7 87 - 44
14:00 6,6 4,6 17,7 WSW 24,1 991,1 87 - 33
14:05 6,6 4,6 25,9 WSW 40,2 991,1 87 - 26
14:10 6,6 4,4 19,5 WSW 32,2 991,1 86 - 16
14:15 6,6 4,4 22,7 WSW 38,6 991,1 86 - 23
14:20 6,6 4,4 13,0 SW 25,7 991,1 86 - 30
14:25 6,6 4,4 20,9 WSW 37,0 991,1 86 - 21
14:30 6,6 4,4 17,7 SW 35,4 991,1 86 - 16
14:35 6,7 4,5 17,7 WSW 37,0 991,4 86 - 14
14:40 6,6 4,4 20,9 WSW 37,0 991,4 86 - 19
14:45 6,6 4,4 19,5 SSW 29,0 991,4 86 - 33
14:50 6,5 4,5 14,3 SW 20,9 991,4 87 - 21
14:55 6,4 4,4 20,9 WSW 27,4 991,8 87 - 19
15:00 6,4 4,4 17,7 WSW 25,7 991,8 87 - 23
15:05 6,3 4,3 9,7 WSW 29,0 992,1 87 - 21
15:10 6,3 4,5 19,5 SW 33,8 992,1 88 - 23
15:15 6,3 4,5 17,7 SW 25,7 992,1 88 - 19
15:20 6,3 4,5 11,1 SW 30,6 992,1 88 - 16
15:25 6,2 4,4 27,4 WSW 27,4 992,1 88 - 14
15:30 6,2 4,4 16,3 West 20,9 992,1 88 - 11
15:35 6,1 4,3 14,3 WSW 24,1 992,4 88 - 9
15:40 6,1 4,3 13,0 WSW 22,5 992,4 88 - 7
15:45 6,0 4,2 17,7 SW 24,1 992,4 88 - 7
15:50 5,9 4,1 9,7 SW 32,2 992,4 88 - 5

Download your copy of this data-set  here

Our weather-data as stored at Weather Underground. Script developed by Jim McMurry. Adapted for the template by Leuven-Template.eu

You find our weather info also at:

European Weather Network

Weather Underground

European Weather Network

Equipment we use:

Weather-station
Davis VP2

Weather-program
Weather Display

Davis VP2

Weather Display



Hej. Vi har købt ny vejrstation, og er ved at bygge en helt ny vejrside.
Kom snart tilbage og følg udviklingen.
Du kan også komme med kommentarer eller evt. ønsker via "Kontakt" i bunden.